Regional Weather Roundup
Issued by NWS Charleston, SC

Home | Current Version | Previous Version | Text Only | Print | Product List | Glossary On
Versions: 1 2 3 4 5 6 7 8 9 10 11 12 13 14 15 16 17 18 19 20 21 22 23 24 25 26 27 28 29 30 31 32 33 34 35 36 37 38 39 40 41 42 43 44 45 46 47 48 49 50
000
ASUS42 KCHS 271727
RWRCHS

REGIONAL WEATHER ROUNDUP
NATIONAL WEATHER SERVICE CHARLESTON SC
100 PM EDT MON APR 27 2015

NOTE: "FAIR" INDICATES FEW OR NO CLOUDS BELOW 12,000 FEET WITH NO
SIGNIFICANT WEATHER AND/OR OBSTRUCTIONS TO VISIBILITY.

NOT ALL STATIONS ARE QUALITY CONTROLLED BY THE NATIONAL
WEATHER SERVICE. USE DATA WITH CAUTION...ESPECIALLY
DEWPOINT OBSERVATIONS.

SCZ027-030-031-034>040-042>050-271800-
...SOUTHEAST SOUTH CAROLINA...

CITY           SKY/WX    TMP DP  RH WIND       PRES   REMARKS
N CHARLESTON   MOSUNNY   69  45  41 N9G21     29.84F
WATERFRONT PRK   N/A     64 N/A N/A N10         N/A
MOUNT PLEASANT FAIR      70  46  43 MISG      29.82F
PINOPOLIS      NOT AVBL
MONCKS CORNER  FAIR      68  48  49 NE7       29.83F
SUMMERVILLE    FAIR      70  48  46 NW7       29.85F
BEAUFORT MCAS  MOSUNNY   69  49  48 NE9       29.84F
BEAUFORT ARPT  FAIR      70  52  52 NW9       29.83F
HILTON HEAD IS MOSUNNY   68  55  64 N7        29.85F
WALTERBORO     SUNNY     68  46  45 N8        29.86F
ALLENDALE      FAIR      68  50  52 VRB7G15   29.83F

...SOUTHERN MIDLANDS AND PEE DEE...

CITY           SKY/WX    TMP DP  RH WIND       PRES   REMARKS
GEORGETOWN     NOT AVBL
KINGSTREE      NOT AVBL
ORANGEBURG     SUNNY     67  44  43 E6        29.85F
BARNWELL       FAIR      72  48  43 NW7       29.85F
AIKEN          FAIR      66  39  37 N10       29.88F
MANNING        FAIR      66  36  32 NW7       29.85F
COLUMBIA       MOSUNNY   68  42  38 VRB5      29.84F
SUMTER         MOSUNNY   68  44  41 VRB5      29.83F
FLORENCE       SUNNY     67  45  45 VRB7      29.84F
MYRTLE BEACH   SUNNY     66  41  39 N13       29.86F
N MYRTLE BEACH SUNNY     67  41  38 N13       29.82F

$$

GAZ063-065-086>088-099>101-113>116-118-119-134>141-150-271800-
...SOUTHEAST GEORGIA...

CITY           SKY/WX    TMP DP  RH WIND       PRES   REMARKS
SAVANNAH ARPT  MOSUNNY   72  53  51 N10       29.83F
HUNTER AAF     MOSUNNY   72  57  59 N9        29.81F
FORT STEWART   PTSUNNY   71  57  60 VRB1      29.81F
STATESBORO       N/A     70  52  52 NE9       29.82F
SYLVANIA       SUNNY     69  54  58 N5        29.84F
CLAXTON        FAIR      72  55  56 NE5       29.82F

...CSRA...CENTRAL AND FAR SOUTHEAST GEORGIA...

CITY           SKY/WX    TMP DP  RH WIND       PRES   REMARKS
THOMSON        MOSUNNY   70  51  51 NE7       29.88F
AUGUSTA-BUSH   SUNNY     69  44  40 VRB5      29.85F
AUGUSTA-DANIEL MOSUNNY   70  45  40 N6        29.87F
SWAINSBORO     NOT AVBL
VIDALIA        MOSUNNY   72  55  56 N3        29.82F
EASTMAN        FAIR      74  57  56 N7G16     29.86F
HAZLEHURST     FAIR      72  58  62 N5        29.82F
ALMA           CLOUDY    68  58  70 N3        29.83F
WAYCROSS       CLOUDY    71  64  80 CALM      29.83F
JESUP          CLOUDY    70  63  78 N5        29.83F
BAXLEY         FAIR      70  59  68 N6        29.83F
BRUNSWICK      CLOUDY    64  61  88 NE5       29.84F
SAINT SIMONS   CLOUDY    66  62  87 NE8       29.83F

$$

SCZ027-028-034-036>038-045-046-048>050-GAZ119-141-271800-
...LAKE AND SUPPLEMENTAL COASTAL OBSERVATIONS...

STATION/POSITION TIME  TEMP    WIND        PRES    WAVE   SWELL
                       AIR SEA DIR/SP/G            HT/PER HT/PER/DIR
                 (UTC) (F)     (DEG/KT/KT) (MB)    (FT/S) (FT/S/D)
UPR LAKE MARION  NOT AVBL
WINYAH BAY       1600   62     350/  5     1010.0
LAKE MURRAY      1600   63     190/  3/  8 1011.5F
ACE BASIN NERRS  1645   70     360/  3     1011.0S
FORT PULASKI     1700   67 70  360/  8/ 10 1010.4F
SAPELO ISLAND    1700   63     360/  5     1010.0F

$$

ANZ835-935-AMZ111-154-330-350-352-354-370-450-454-472-271800-
...C-MAN AND BUOY OBSERVATIONS...

STATION/POSITION TIME  TEMP    WIND        PRES    WAVE   SWELL
                       AIR SEA DIR/SP/G            HT/PER HT/PER/DIR
                 (UTC) (F)     (DEG/KT/KT) (MB)    (FT/S) (FT/S/D)
BUOY 41004       1650   60 71  360/ 14/ 17 1010.0F   3/ 6   2/ 7
BUOY 41008       1650   62 69   40/ 10/ 12 1010.4F   3/ 6   3/ 60/ 6
FOLLY BEACH CMAN 1700   66     360/  9/ 12 1010.4F
CAPERS NEARSHORE 1608   62     360/  6/  8 1010.9R
FRIPP NEARSHORE  1600   62     360/ 10/ 12 1010.9F


STATION/POSITION TIME  TEMP    WIND        PRES    WAVE   SWELL
                       AIR SEA DIR/SP/G            HT/PER HT/PER/DIR
                 (UTC) (F)     (DEG/KT/KT) (MB)    (FT/S) (FT/S/D)
5E ST. MARYS GA  1621      70                N/A     3/ 6
FRYING PAN BUOY  1650   61 71  360/ 10/ 14 1010.2F   3/ 5   2/ 70/ 5
BUOY 41025       1650   61 74  350/ 12/ 17 1008.7R   5/10   5/ 70/10
CAPE LOOKOUT NC  1700   63     290/  7/  9 1008.8S
BUOY 41002       1650   67 71  320/ 10/ 14 1006.8R   5/ 7   5/320/ 7
BUOY 41010       1620   79 79  290/ 17/ 19 1008.5R
ST AUGUSTINE FL  1700   69 69   10/ 10/ 11 1009.7F


$$



USA.gov is the U.S. government's official web portal to all federal, state and local government web resources and services.